This is the latest recevied weather packets stored in our database for station/object IK6ZNK-3. If no packets are shown the sender has not sent any weather packets the latest 10 day(s).
| Time | Temp. | Humidity | Pressure | Rain* | Wind** | Luminosity | Snow |
|---|---|---|---|---|---|---|---|
| 1777639809 | 13.33° C | 48% | 1016 hPa | 0 mm | - | - | - |
| 1777639209 | 13.33° C | 47% | 1016.1 hPa | 0 mm | - | - | - |
| 1777638609 | 13.89° C | 47% | 1016.1 hPa | 0 mm | - | - | - |
| 1777638009 | 13.33° C | 48% | 1016 hPa | 0 mm | - | - | - |
| 1777637409 | 13.89° C | 48% | 1015.8 hPa | 0 mm | - | - | - |
| 1777636810 | 13.89° C | 47% | 1016.1 hPa | 0 mm | - | - | - |
| 1777636209 | 13.89° C | 43% | 1016.1 hPa | 0 mm | - | - | - |
| 1777635608 | 13.89° C | 44% | 1016 hPa | 0 mm | - | - | - |
| 1777635010 | 13.33° C | 47% | 1016.1 hPa | 0 mm | - | - | - |
| 1777634410 | 13.33° C | 45% | 1016.2 hPa | 0 mm | - | - | - |
| 1777633812 | 13.33° C | 44% | 1016.1 hPa | 0 mm | - | - | - |
| 1777633210 | 13.33° C | 47% | 1016.1 hPa | 0 mm | - | - | - |
| 1777632610 | 13.89° C | 46% | 1016.3 hPa | 0 mm | - | - | - |
| 1777632011 | 13.89° C | 45% | 1016 hPa | 0 mm | - | - | - |
| 1777631409 | 13.33° C | 45% | 1016.1 hPa | 0 mm | - | - | - |
| 1777630809 | 13.33° C | 43% | 1016.2 hPa | 0 mm | - | - | - |
| 1777630211 | 13.33° C | 43% | 1016 hPa | 0 mm | - | - | - |
| 1777629609 | 13.33° C | 41% | 1016.1 hPa | 0 mm | - | - | - |
| 1777629010 | 13.89° C | 42% | 1016.1 hPa | 0 mm | - | - | - |
| 1777628411 | 12.78° C | 47% | 1015.9 hPa | 0 mm | - | - | - |
| 1777627810 | 12.22° C | 51% | 1016.1 hPa | 0 mm | - | - | - |
| 1777627211 | 12.78° C | 50% | 1015.8 hPa | 0 mm | - | - | - |
| 1777626608 | 13.33° C | 50% | 1015.9 hPa | 0 mm | - | - | - |
| 1777626012 | 12.78° C | 49% | 1015.8 hPa | 0 mm | - | - | - |
| 1777625410 | 12.78° C | 51% | 1016 hPa | 0 mm | - | - | - |
* Rain latest hour (hover to see other rain measurements)
** Current wind speed in m/s (hover to see current wind gust speed)